Poplar Bluff, MO

7:08 AM CDT on June 26, 2017 (GMT -0500)
Poplar Bluff Municipal

Weather History for KPOF - May, 2011

Change the Weather History Date:

Wednesday, May 18, 2011

  Actual Average Record
Temperature  
Mean Temperature 58 °F -  
Max Temperature 71 °F 80 °F 94 °F (1944)
Min Temperature 46 °F 55 °F 39 °F (2002)
Degree Days  
Heating Degree Days 7    
Growing Degree Days 8 (Base 50)    
Moisture  
Dew Point 49 °F    
Average Humidity 73    
Maximum Humidity 93    
Minimum Humidity 51    
Precipitation  
Precipitation 0.00 in - - ()
Sea Level Pressure  
Sea Level Pressure 29.86 in    
Wind  
Wind Speed 1 mph (South)    
Max Wind Speed 8 mph    
Max Gust Speed -    
Visibility 10 miles    
Events Rain    
Averages and records for this station are not official NWS values.
T = Trace of Precipitation, MM = Missing Value Source: NWS Daily Summary

Daily Weather History Graph

Daily Weather History Graph

Search for Another Location

Airport or City:

Trip Planner

Search our weather history database for the weather conditions in past years. The results will help you decide how hot, cold, wet, or windy it might be!

Date:

Astronomy

May. 18, 2011 Rise Set
Actual Time 5:51 AM CDT 8:04 PM CDT
Civil Twilight 5:22 AM CDT 8:33 PM CDT
Nautical Twilight 4:46 AM CDT 9:09 PM CDT
Astronomical Twilight 4:08 AM CDT 9:48 PM CDT
Moon 9:47 PM CDT (5/18) 6:39 AM CDT (5/18)
Length of Visible Light 15h 10m
Length of Day
14h 12m
Full, 98% of the Moon is Illuminated
May 18
Full
May 24
Last Quarter
Jun 1
New
Jun 8
First Quarter
Jun 15
Full

Hourly Weather History & Observations

Time (CDT) Temp. Dew Point Humidity Pressure Visibility Wind Dir Wind Speed Gust Speed Precip Events Conditions
12:53 AM 48.9 °F 46.9 °F 93% 29.85 in 10.0 mi Calm Calm - N/A   Clear
1:53 AM 48.9 °F 46.0 °F 90% 29.85 in 10.0 mi Calm Calm - N/A   Clear
2:53 AM 46.9 °F 44.1 °F 90% 29.84 in 10.0 mi Calm Calm - N/A   Clear
3:53 AM 46.9 °F 44.1 °F 90% 29.85 in 10.0 mi Calm Calm - N/A   Clear
4:53 AM 46.0 °F 44.1 °F 93% 29.84 in 10.0 mi Calm Calm - N/A   Clear
5:53 AM 46.0 °F 43.0 °F 89% 29.85 in 10.0 mi Calm Calm - N/A   Clear
6:53 AM 46.9 °F 44.1 °F 90% 29.87 in 10.0 mi Calm Calm - N/A   Clear
7:53 AM 53.1 °F 48.0 °F 83% 29.89 in 10.0 mi WSW 3.5 mph - N/A   Clear
8:53 AM 59.0 °F 46.9 °F 64% 29.88 in 10.0 mi Calm Calm - N/A   Clear
9:53 AM 61.0 °F 46.9 °F 60% 29.87 in 10.0 mi Calm Calm - N/A   Clear
10:53 AM 63.0 °F 46.9 °F 56% 29.88 in 10.0 mi Calm Calm - N/A   Clear
11:53 AM 64.9 °F 48.9 °F 56% 29.87 in 10.0 mi Calm Calm - N/A   Clear
12:53 PM 66.9 °F 51.1 °F 57% 29.86 in 10.0 mi SSW 4.6 mph - N/A   Clear
1:53 PM 68.0 °F 51.1 °F 55% 29.86 in 10.0 mi SSW 6.9 mph - N/A   Clear
2:53 PM 70.0 °F 51.1 °F 51% 29.85 in 10.0 mi SW 5.8 mph - N/A   Clear
3:53 PM 70.0 °F 51.1 °F 51% 29.85 in 10.0 mi SSW 6.9 mph - N/A   Clear
4:53 PM 69.1 °F 50.0 °F 51% 29.84 in 10.0 mi South 8.1 mph - N/A   Clear
5:53 PM 68.0 °F 51.1 °F 55% 29.85 in 10.0 mi South 5.8 mph - N/A   Scattered Clouds
6:53 PM 64.0 °F 53.1 °F 67% 29.84 in 10.0 mi South 4.6 mph - 0.00 in Rain Light Rain
7:53 PM 63.0 °F 55.0 °F 75% 29.85 in 10.0 mi ESE 3.5 mph - 0.00 in   Scattered Clouds
8:53 PM 61.0 °F 55.0 °F 81% 29.86 in 10.0 mi SE 3.5 mph - N/A   Scattered Clouds
9:53 PM 60.1 °F 55.9 °F 86% 29.87 in 10.0 mi Calm Calm - N/A   Overcast
10:53 PM 57.9 °F 54.0 °F 87% 29.89 in 10.0 mi Calm Calm - N/A   Partly Cloudy
11:53 PM 57.0 °F 55.0 °F 93% 29.88 in 10.0 mi Calm Calm - N/A   Mostly Cloudy